Location: Miss�
(46.9484°N, 0.1922°W)
Time: 09:59:17
(UTC+00:00)

HJ-1C - Pass Details

Date: 02 March 2021
Orbit: 428 x 441 km, 97.1° (Epoch: 10 April)

Event Time Altitude Azimuth Distance (km) Brightness Sun altitude
Rises 19:11:23 0° 178° (S) 2,416 7.0 -15.0°
Reaches altitude 10° 19:13:26 10° 183° (S) 1,550 6.1 -15.4°
Maximum altitude 19:16:41 50° 260° (W) 566 4.3 -15.9°
Drops below altitude 10° 19:19:56 10° 338° (NNW) 1,557 6.5 -16.5°
Sets 19:22:00 0° 343° (NNW) 2,429 7.5 -16.8°
